• In United Kingdom
  • List of Countries
  • For 7 days
  • Water Temperature
  • Satellite Maps
  • Weather Map
  • Weather Widgets
  • user-avatar
    Login

    Hourly Weather Salzburg

    Today, 20 October, Friday

    Time Temperature Precipitation Wind Pressure Humidity
    00:00 +3°C° 0 mm 2 mps 625 mmHg 66%
    01:00 +3°C° 0 mm 2 mps 625 mmHg 65%
    02:00 +3°C° 0 mm 2 mps 625 mmHg 63%
    03:00 +4°C° 0 mm 1 mps 625 mmHg 60%
    04:00 +4°C° 0 mm 1 mps 625 mmHg 58%
    05:00 +4°C° 0 mm 1 mps 625 mmHg 57%
    06:00 +4°C° 0 mm 1 mps 625 mmHg 55%
    07:00 +4°C° 0 mm 1 mps 625 mmHg 53%
    08:00 +7°C° 0 mm 1 mps 626 mmHg 48%
    09:00 +9°C° 0 mm 1 mps 628 mmHg 43%
    10:00 +12°C° 0 mm 1 mps 629 mmHg 38%
    11:00 +13°C° 0 mm 1 mps 629 mmHg 38%
    12:00 +13°C° 0 mm 1 mps 629 mmHg 38%
    13:00 +14°C° 0 mm 1 mps 629 mmHg 38%
    14:00 +13°C° 0 mm 1 mps 629 mmHg 47%
    15:00 +12°C° 0 mm 1 mps 629 mmHg 55%
    16:00 +11°C° 0 mm 1 mps 628 mmHg 64%
    17:00 +9°C° 0 mm 1 mps 628 mmHg 71%
    18:00 +7°C° 0 mm 1 mps 628 mmHg 77%
    19:00 +5°C° 0 mm 1 mps 627 mmHg 83%
    20:00 +5°C° 0 mm 1 mps 627 mmHg 81%
    21:00 +5°C° 0 mm 1 mps 627 mmHg 79%
    22:00 +4°C° 0 mm 1 mps 627 mmHg 77%
    23:00 +4°C° 0 mm 1 mps 627 mmHg 74%

    Tomorrow, 21 October, Saturday

    Time Temperature Precipitation Wind Pressure Humidity
    00:00 +4°C° 0 mm 1 mps 627 mmHg 71%
    01:00 +4°C° 0 mm 1 mps 627 mmHg 67%
    02:00 +4°C° 0 mm 1 mps 627 mmHg 66%
    03:00 +4°C° 0 mm 1 mps 627 mmHg 65%
    04:00 +5°C° 0 mm 1 mps 627 mmHg 64%
    05:00 +5°C° 0 mm 1 mps 627 mmHg 64%
    06:00 +5°C° 0 mm 1 mps 627 mmHg 64%
    07:00 +5°C° 0 mm 1 mps 627 mmHg 64%
    08:00 +7°C° 0 mm 1 mps 628 mmHg 59%
    09:00 +10°C° 0 mm 1 mps 629 mmHg 54%
    10:00 +11°C° 0 mm 0 mps 630 mmHg 48%
    11:00 +12°C° 0 mm 0 mps 630 mmHg 47%
    12:00 +13°C° 0 mm 0 mps 630 mmHg 46%
    13:00 +15°C° 0 mm 1 mps 630 mmHg 44%
    14:00 +14°C° 0 mm 1 mps 629 mmHg 51%
    15:00 +12°C° 0 mm 0 mps 629 mmHg 58%
    16:00 +11°C° 0 mm 0 mps 628 mmHg 65%
    17:00 +10°C° 0 mm 1 mps 627 mmHg 69%
    18:00 +9°C° 0 mm 1 mps 627 mmHg 73%
    19:00 +7°C° 0 mm 1 mps 626 mmHg 77%
    20:00 +7°C° 0 mm 1 mps 626 mmHg 77%
    21:00 +6°C° 0 mm 1 mps 626 mmHg 77%
    22:00 +6°C° 0 mm 1 mps 626 mmHg 78%
    23:00 +6°C° 0 mm 1 mps 626 mmHg 80%

    Day after tomorrow, 22 October, Sunday

    Time Temperature Precipitation Wind Pressure Humidity
    00:00 +6°C° 0 mm 1 mps 627 mmHg 83%
    01:00 +5°C° 0 mm 1 mps 627 mmHg 85%
    02:00 +5°C° 0.3 mm 1 mps 626 mmHg 89%
    03:00 +5°C° 0.3 mm 1 mps 626 mmHg 92%
    04:00 +4°C° 0.3 mm 2 mps 626 mmHg 95%
    05:00 +4°C° 0.5 mm 2 mps 626 mmHg 95%
    06:00 +4°C° 0.5 mm 1 mps 626 mmHg 96%
    07:00 +4°C° 0.5 mm 1 mps 626 mmHg 97%
    08:00 +4°C° 0.9 mm 1 mps 626 mmHg 96%
    09:00 +4°C° 0.9 mm 1 mps 626 mmHg 95%
    10:00 +4°C° 0.9 mm 1 mps 625 mmHg 94%
    11:00 +4°C° 2.3 mm 1 mps 625 mmHg 95%
    12:00 +3°C° 2.3 mm 2 mps 625 mmHg 96%
    13:00 +2°C° 2.3 mm 2 mps 624 mmHg 96%
    14:00 +2°C° 2.7 mm 2 mps 624 mmHg 96%
    15:00 +1°C° 2.7 mm 2 mps 624 mmHg 96%
    16:00 +1°C° 2.7 mm 2 mps 624 mmHg 96%
    17:00 +1°C° 1.4 mm 2 mps 624 mmHg 96%
    18:00 -1°C° 1.4 mm 2 mps 624 mmHg 96%
    19:00 -1°C° 1.4 mm 2 mps 624 mmHg 96%
    20:00 -1°C° 0.7 mm 2 mps 624 mmHg 96%
    21:00 -1°C° 0.7 mm 2 mps 624 mmHg 96%
    22:00 -2°C° 0.7 mm 2 mps 624 mmHg 96%
    23:00 -2°C° 0.4 mm 2 mps 624 mmHg 96%

    23 October, Monday

    Time Temperature Precipitation Wind Pressure Humidity
    00:00 -2°C° 0.4 mm 2 mps 624 mmHg 96%
    01:00 -3°C° 0.4 mm 2 mps 623 mmHg 96%
    02:00 -3°C° 0.5 mm 2 mps 623 mmHg 96%
    03:00 -3°C° 0.5 mm 2 mps 623 mmHg 96%
    04:00 -3°C° 0.5 mm 2 mps 624 mmHg 96%
    05:00 -3°C° 0.5 mm 2 mps 624 mmHg 96%
    06:00 -3°C° 0.5 mm 2 mps 624 mmHg 96%
    07:00 -3°C° 0.5 mm 2 mps 624 mmHg 95%
    08:00 -3°C° 0.2 mm 2 mps 624 mmHg 94%
    09:00 -2°C° 0.2 mm 3 mps 624 mmHg 93%
    10:00 -1°C° 0.2 mm 3 mps 624 mmHg 91%
    11:00 -1°C° 0.3 mm 3 mps 624 mmHg 91%
    12:00 -1°C° 0.3 mm 3 mps 624 mmHg 92%
    13:00 -1°C° 0.3 mm 3 mps 624 mmHg 92%
    14:00 -1°C° 0.5 mm 3 mps 625 mmHg 93%
    15:00 -1°C° 0.5 mm 3 mps 625 mmHg 93%
    16:00 -1°C° 0.5 mm 3 mps 625 mmHg 94%
    17:00 -1°C° 0.8 mm 3 mps 626 mmHg 94%
    18:00 -1°C° 0.8 mm 3 mps 626 mmHg 95%
    19:00 -1°C° 0.8 mm 3 mps 626 mmHg 96%
    20:00 -1°C° 1 mm 3 mps 627 mmHg 96%
    21:00 -1°C° 1 mm 3 mps 627 mmHg 96%
    22:00 -1°C° 1 mm 3 mps 627 mmHg 96%
    23:00 -1°C° 0.5 mm 3 mps 627 mmHg 96%

    24 October, Tuesday

    Time Temperature Precipitation Wind Pressure Humidity
    00:00 -1°C° 0.5 mm 3 mps 628 mmHg 96%
    01:00 -2°C° 0.5 mm 2 mps 628 mmHg 97%
    02:00 -2°C° 0.2 mm 2 mps 628 mmHg 96%
    03:00 -2°C° 0.2 mm 2 mps 628 mmHg 96%
    04:00 -2°C° 0.2 mm 2 mps 628 mmHg 96%
    05:00 -2°C° 0.1 mm 2 mps 628 mmHg 96%
    06:00 -2°C° 0.1 mm 2 mps 628 mmHg 96%
    07:00 -2°C° 0.1 mm 2 mps 628 mmHg 95%
    08:00 -1°C° 0 mm 2 mps 629 mmHg 94%
    09:00 +1°C° 0 mm 2 mps 629 mmHg 92%
    10:00 +2°C° 0 mm 2 mps 629 mmHg 90%
    11:00 +3°C° 0 mm 2 mps 629 mmHg 90%
    12:00 +3°C° 0 mm 2 mps 629 mmHg 91%
    13:00 +4°C° 0 mm 1 mps 629 mmHg 91%
    14:00 +4°C° 0.2 mm 1 mps 629 mmHg 92%
    15:00 +2°C° 0.2 mm 2 mps 629 mmHg 93%
    16:00 +2°C° 0.2 mm 2 mps 629 mmHg 95%
    17:00 +2°C° 0.7 mm 2 mps 629 mmHg 96%
    18:00 +2°C° 0.7 mm 2 mps 630 mmHg 96%
    19:00 +2°C° 0.7 mm 2 mps 630 mmHg 97%
    20:00 +2°C° 1.1 mm 2 mps 630 mmHg 97%
    21:00 +2°C° 1.1 mm 2 mps 630 mmHg 98%
    22:00 +2°C° 1.1 mm 2 mps 631 mmHg 98%
    23:00 +2°C° 0.7 mm 2 mps 631 mmHg 98%

    25 October, Wednesday

    Time Temperature Precipitation Wind Pressure Humidity
    00:00 +2°C° 0.7 mm 2 mps 631 mmHg 98%
    01:00 +2°C° 0.7 mm 2 mps 631 mmHg 98%
    02:00 +2°C° 0.3 mm 2 mps 631 mmHg 98%
    03:00 +2°C° 0.3 mm 2 mps 631 mmHg 98%
    04:00 +2°C° 0.3 mm 2 mps 631 mmHg 98%
    05:00 +2°C° 0.2 mm 2 mps 631 mmHg 98%
    06:00 +2°C° 0.2 mm 2 mps 632 mmHg 98%
    07:00 +3°C° 0.2 mm 1 mps 632 mmHg 98%
    08:00 +4°C° 0.1 mm 1 mps 632 mmHg 96%
    09:00 +4°C° 0.1 mm 1 mps 632 mmHg 95%
    10:00 +5°C° 0.1 mm 1 mps 633 mmHg 94%
    11:00 +5°C° 0 mm 1 mps 633 mmHg 92%
    12:00 +6°C° 0 mm 1 mps 633 mmHg 89%
    13:00 +7°C° 0 mm 1 mps 633 mmHg 87%
    14:00 +6°C° 0 mm 1 mps 633 mmHg 88%
    15:00 +6°C° 0 mm 1 mps 633 mmHg 90%
    16:00 +5°C° 0 mm 1 mps 633 mmHg 91%
    17:00 +4°C° 0 mm 1 mps 633 mmHg 92%
    18:00 +3°C° 0 mm 1 mps 633 mmHg 93%
    19:00 +1°C° 0 mm 1 mps 632 mmHg 94%
    20:00 +1°C° 0 mm 1 mps 633 mmHg 91%
    21:00 +1°C° 0 mm 1 mps 633 mmHg 88%
    22:00 +1°C° 0 mm 1 mps 633 mmHg 85%
    23:00 0°C° 0 mm 1 mps 633 mmHg 82%
    Show more